Orbital Elements at Epoch 2459200.5 (2020-Dec-17.0) TDB
Reference: JPL 20 (heliocentric ecliptic J2000)
Element | Value | Uncertainty (1-sigma) | Units |
e | .1272641189139478 | 4.345e-08 | |
a | 2.888396386490867 | 1.7474e-08 | au |
q | 2.520807165289876 | 1.2732e-07 | au |
i | 2.560852134137619 | 3.7371e-06 | deg |
node | 253.9523209063492 | 0.00010004 | deg |
peri | 232.730572841684 | 0.0001014 | deg |
M | 280.1390556867489 | 1.9076e-05 | deg |
tp | 2459598.254916767258 (2022-Jan-18.75491677) | 9.6535e-05 | TDB |
period | 1793.013734905879 4.91 | 1.627e-05 4.454e-08 | d yr |
n | .200779276249603 | 1.8219e-09 | deg/d |
Q | 3.255985607691859 | 1.9697e-08 | au |
|
| | Orbit Determination Parameters
Additional Information
|